Year,Month,Day,Hour,Minute,Value (Times are PST for temperature in C)
2009,05,24,00,00,11.30
2009,05,24,00,01,11.30
2009,05,24,00,02,11.30
2009,05,24,00,03,11.30
2009,05,24,00,04,11.30
2009,05,24,00,05,11.30
2009,05,24,00,06,11.30
2009,05,24,00,07,11.30
2009,05,24,00,08,11.30
2009,05,24,00,09,11.30
2009,05,24,00,10,11.30
2009,05,24,00,11,11.30
2009,05,24,00,12,11.30
2009,05,24,00,13,11.30
2009,05,24,00,14,11.30
2009,05,24,00,15,11.30
2009,05,24,00,16,11.30
2009,05,24,00,17,11.30
2009,05,24,00,18,11.30
2009,05,24,00,19,11.30
2009,05,24,00,20,11.30
2009,05,24,00,21,11.30
2009,05,24,00,22,11.20
2009,05,24,00,23,11.20
2009,05,24,00,24,11.20
2009,05,24,00,25,11.20
2009,05,24,00,26,11.10
2009,05,24,00,27,11.10
2009,05,24,00,28,11.10
2009,05,24,00,29,11.00
2009,05,24,00,30,11.00
2009,05,24,00,31,10.90
2009,05,24,00,32,10.90
2009,05,24,00,33,10.80
2009,05,24,00,34,10.80
2009,05,24,00,35,10.80
2009,05,24,00,36,10.70
2009,05,24,00,37,10.70
2009,05,24,00,38,10.60
2009,05,24,00,39,10.60
2009,05,24,00,40,10.60
2009,05,24,00,41,10.50
2009,05,24,00,42,10.50
2009,05,24,00,43,10.40
2009,05,24,00,44,10.40
2009,05,24,00,45,10.40
2009,05,24,00,46,10.30
2009,05,24,00,47,10.30
2009,05,24,00,48,10.30
2009,05,24,00,49,10.30
2009,05,24,00,50,10.20
2009,05,24,00,51,10.20
2009,05,24,00,52,10.20
2009,05,24,00,53,10.20
2009,05,24,00,54,10.20
2009,05,24,00,55,10.20
2009,05,24,00,56,10.20
2009,05,24,00,57,10.30
2009,05,24,00,58,10.30
2009,05,24,00,59,10.30
2009,05,24,01,00,10.30
2009,05,24,01,01,10.30
2009,05,24,01,02,10.30
2009,05,24,01,03,10.30
2009,05,24,01,04,10.30
2009,05,24,01,05,10.30
2009,05,24,01,06,10.20
2009,05,24,01,07,10.20
2009,05,24,01,08,10.20
2009,05,24,01,09,10.20
2009,05,24,01,10,10.10
2009,05,24,01,11,10.10
2009,05,24,01,12,10.10
2009,05,24,01,13,10.00
2009,05,24,01,14,10.00
2009,05,24,01,15,9.90
2009,05,24,01,16,9.90
2009,05,24,01,17,9.90
2009,05,24,01,18,9.90
2009,05,24,01,19,9.80
2009,05,24,01,20,9.80
2009,05,24,01,21,9.80
2009,05,24,01,22,9.80
2009,05,24,01,23,9.80
2009,05,24,01,24,9.70
2009,05,24,01,25,9.70
2009,05,24,01,26,9.70
2009,05,24,01,27,9.70
2009,05,24,01,28,9.60
2009,05,24,01,29,9.60
2009,05,24,01,30,9.60
2009,05,24,01,31,9.60
2009,05,24,01,32,9.60
2009,05,24,01,33,9.50
2009,05,24,01,34,9.50
2009,05,24,01,35,9.50
2009,05,24,01,36,9.40
2009,05,24,01,37,9.40
2009,05,24,01,38,9.40
2009,05,24,01,39,9.40
2009,05,24,01,40,9.40
2009,05,24,01,41,9.40
2009,05,24,01,42,9.30
2009,05,24,01,43,9.30
2009,05,24,01,44,9.30
2009,05,24,01,45,9.30
2009,05,24,01,46,9.30
2009,05,24,01,47,9.30
2009,05,24,01,48,9.30
2009,05,24,01,49,9.30
2009,05,24,01,50,9.30
2009,05,24,01,51,9.30
2009,05,24,01,52,9.30
2009,05,24,01,53,9.30
2009,05,24,01,54,9.30
2009,05,24,01,55,9.30
2009,05,24,01,56,9.30
2009,05,24,01,57,9.30
2009,05,24,01,58,9.30
2009,05,24,01,59,9.30
2009,05,24,02,00,9.30
2009,05,24,02,01,9.30
2009,05,24,02,02,9.30
2009,05,24,02,03,9.30
2009,05,24,02,04,9.30
2009,05,24,02,05,9.20
2009,05,24,02,06,9.20
2009,05,24,02,07,9.20
2009,05,24,02,08,9.20
2009,05,24,02,09,9.20
2009,05,24,02,10,9.20
2009,05,24,02,11,9.20
2009,05,24,02,12,9.20
2009,05,24,02,13,9.20
2009,05,24,02,14,9.10
2009,05,24,02,15,9.10
2009,05,24,02,16,9.10
2009,05,24,02,17,9.10
2009,05,24,02,18,9.10
2009,05,24,02,19,9.10
2009,05,24,02,20,9.10
2009,05,24,02,21,9.10
2009,05,24,02,22,9.10
2009,05,24,02,23,9.10
2009,05,24,02,24,9.00
2009,05,24,02,25,9.00
2009,05,24,02,26,9.00
2009,05,24,02,27,9.00
2009,05,24,02,28,8.90
2009,05,24,02,29,8.90
2009,05,24,02,30,8.90
2009,05,24,02,31,8.90
2009,05,24,02,32,8.90
2009,05,24,02,33,8.90
2009,05,24,02,34,8.90
2009,05,24,02,35,8.90
2009,05,24,02,36,8.90
2009,05,24,02,37,8.90
2009,05,24,02,38,8.90
2009,05,24,02,39,8.80
2009,05,24,02,40,8.80
2009,05,24,02,41,8.80
2009,05,24,02,42,8.80
2009,05,24,02,43,8.80
2009,05,24,02,44,8.80
2009,05,24,02,45,8.80
2009,05,24,02,46,8.80
2009,05,24,02,47,8.80
2009,05,24,02,48,8.80
2009,05,24,02,49,8.80
2009,05,24,02,50,8.80
2009,05,24,02,51,8.80
2009,05,24,02,52,8.80
2009,05,24,02,53,8.70
2009,05,24,02,54,8.70
2009,05,24,02,55,8.70
2009,05,24,02,56,8.70
2009,05,24,02,57,8.70
2009,05,24,02,58,8.70
2009,05,24,02,59,8.70
2009,05,24,03,00,8.70
2009,05,24,03,01,8.70
2009,05,24,03,02,8.70
2009,05,24,03,03,8.70
2009,05,24,03,04,8.60
2009,05,24,03,05,8.60
2009,05,24,03,06,8.60
2009,05,24,03,07,8.60
2009,05,24,03,08,8.60
2009,05,24,03,09,8.60
2009,05,24,03,10,8.60
2009,05,24,03,11,8.60
2009,05,24,03,12,8.60
2009,05,24,03,13,8.60
2009,05,24,03,14,8.50
2009,05,24,03,15,8.50
2009,05,24,03,16,8.50
2009,05,24,03,17,8.50
2009,05,24,03,18,8.50
2009,05,24,03,19,8.50
2009,05,24,03,20,8.40
2009,05,24,03,21,8.40
2009,05,24,03,22,8.40
2009,05,24,03,23,8.40
2009,05,24,03,24,8.40
2009,05,24,03,25,8.40
2009,05,24,03,26,8.40
2009,05,24,03,27,8.40
2009,05,24,03,28,8.40
2009,05,24,03,29,8.30
2009,05,24,03,30,8.30
2009,05,24,03,31,8.30
2009,05,24,03,32,8.30
2009,05,24,03,33,8.30
2009,05,24,03,34,8.30
2009,05,24,03,35,8.30
2009,05,24,03,36,8.20
2009,05,24,03,37,8.20
2009,05,24,03,38,8.20
2009,05,24,03,39,8.20
2009,05,24,03,40,8.20
2009,05,24,03,41,8.20
2009,05,24,03,42,8.20
2009,05,24,03,43,8.20
2009,05,24,03,44,8.20
2009,05,24,03,45,8.20
2009,05,24,03,46,8.10
2009,05,24,03,47,8.10
2009,05,24,03,48,8.10
2009,05,24,03,49,8.10
2009,05,24,03,50,8.10
2009,05,24,03,51,8.10
2009,05,24,03,52,8.10
2009,05,24,03,53,8.10
2009,05,24,03,54,8.10
2009,05,24,03,55,8.00
2009,05,24,03,56,8.00
2009,05,24,03,57,8.00
2009,05,24,03,58,8.00
2009,05,24,03,59,8.00
2009,05,24,04,00,8.00
2009,05,24,04,01,8.00
2009,05,24,04,02,7.90
2009,05,24,04,03,7.90
2009,05,24,04,04,7.90
2009,05,24,04,05,7.90
2009,05,24,04,06,7.90
2009,05,24,04,07,7.90
2009,05,24,04,08,7.90
2009,05,24,04,09,7.90
2009,05,24,04,10,7.90
2009,05,24,04,11,7.90
2009,05,24,04,12,7.90
2009,05,24,04,13,7.90
2009,05,24,04,14,7.80
2009,05,24,04,15,7.80
2009,05,24,04,16,7.80
2009,05,24,04,17,7.80
2009,05,24,04,18,7.80
2009,05,24,04,19,7.80
2009,05,24,04,20,7.80
2009,05,24,04,21,7.80
2009,05,24,04,22,7.80
2009,05,24,04,23,7.80
2009,05,24,04,24,7.80
2009,05,24,04,25,7.80
2009,05,24,04,26,7.80
2009,05,24,04,27,7.80
2009,05,24,04,28,7.80
2009,05,24,04,29,7.80
2009,05,24,04,30,7.80
2009,05,24,04,31,7.80
2009,05,24,04,32,7.80
2009,05,24,04,33,7.80
2009,05,24,04,34,7.80
2009,05,24,04,35,7.80
2009,05,24,04,36,7.80
2009,05,24,04,37,7.80
2009,05,24,04,38,7.70
2009,05,24,04,39,7.70
2009,05,24,04,40,7.70
2009,05,24,04,41,7.70
2009,05,24,04,42,7.70
2009,05,24,04,43,7.70
2009,05,24,04,44,7.70
2009,05,24,04,45,7.70
2009,05,24,04,46,7.60
2009,05,24,04,47,7.60
2009,05,24,04,48,7.60
2009,05,24,04,49,7.60
2009,05,24,04,50,7.60
2009,05,24,04,51,7.60
2009,05,24,04,52,7.60
2009,05,24,04,53,7.60
2009,05,24,04,54,7.60
2009,05,24,04,55,7.60
2009,05,24,04,56,7.60
2009,05,24,04,57,7.50
2009,05,24,04,58,7.50
2009,05,24,04,59,7.50
2009,05,24,05,00,7.50
2009,05,24,05,01,7.50
2009,05,24,05,02,7.50
2009,05,24,05,03,7.40
2009,05,24,05,04,7.40
2009,05,24,05,05,7.40
2009,05,24,05,06,7.40
2009,05,24,05,07,7.40
2009,05,24,05,08,7.40
2009,05,24,05,09,7.40
2009,05,24,05,10,7.30
2009,05,24,05,11,7.30
2009,05,24,05,12,7.30
2009,05,24,05,13,7.30
2009,05,24,05,14,7.30
2009,05,24,05,15,7.30
2009,05,24,05,16,7.30
2009,05,24,05,17,7.30
2009,05,24,05,18,7.30
2009,05,24,05,19,7.20
2009,05,24,05,20,7.20
2009,05,24,05,21,7.20
2009,05,24,05,22,7.20
2009,05,24,05,23,7.20
2009,05,24,05,24,7.20
2009,05,24,05,25,7.20
2009,05,24,05,26,7.20
2009,05,24,05,27,7.20
2009,05,24,05,28,7.20
2009,05,24,05,29,7.20
2009,05,24,05,30,7.20
2009,05,24,05,31,7.20
2009,05,24,05,32,7.20
2009,05,24,05,33,7.20
2009,05,24,05,34,7.20
2009,05,24,05,35,7.10
2009,05,24,05,36,7.10
2009,05,24,05,37,7.10
2009,05,24,05,38,7.20
2009,05,24,05,39,7.20
2009,05,24,05,40,7.20
2009,05,24,05,41,7.20
2009,05,24,05,42,7.20
2009,05,24,05,43,7.20
2009,05,24,05,44,7.20
2009,05,24,05,45,7.20
2009,05,24,05,46,7.20
2009,05,24,05,47,7.20
2009,05,24,05,48,7.20
2009,05,24,05,49,7.20
2009,05,24,05,50,7.20
2009,05,24,05,51,7.20
2009,05,24,05,52,7.20
2009,05,24,05,53,7.20
2009,05,24,05,54,7.20
2009,05,24,05,55,7.10
2009,05,24,05,56,7.10
2009,05,24,05,57,7.10
2009,05,24,05,58,7.10
2009,05,24,05,59,7.10
2009,05,24,06,00,7.10
2009,05,24,06,01,7.10
2009,05,24,06,02,7.10
2009,05,24,06,03,7.10
2009,05,24,06,04,7.10
2009,05,24,06,05,7.10
2009,05,24,06,06,7.10
2009,05,24,06,07,7.10
2009,05,24,06,08,7.10
2009,05,24,06,09,7.10
2009,05,24,06,10,7.10
2009,05,24,06,11,7.10
2009,05,24,06,12,7.10
2009,05,24,06,13,7.10
2009,05,24,06,14,7.10
2009,05,24,06,15,7.10
2009,05,24,06,16,7.10
2009,05,24,06,17,7.10
2009,05,24,06,18,7.10
2009,05,24,06,19,7.10
2009,05,24,06,20,7.10
2009,05,24,06,21,7.10
2009,05,24,06,22,7.10
2009,05,24,06,23,7.10
2009,05,24,06,24,7.10
2009,05,24,06,25,7.10
2009,05,24,06,26,7.10
2009,05,24,06,27,7.10
2009,05,24,06,28,7.10
2009,05,24,06,29,7.10
2009,05,24,06,30,7.10
2009,05,24,06,31,7.10
2009,05,24,06,32,7.10
2009,05,24,06,33,7.10
2009,05,24,06,34,7.10
2009,05,24,06,35,7.10
2009,05,24,06,36,7.10
2009,05,24,06,37,7.10
2009,05,24,06,38,7.10
2009,05,24,06,39,7.10
2009,05,24,06,40,7.10
2009,05,24,06,41,7.10
2009,05,24,06,42,7.10
2009,05,24,06,43,7.20
2009,05,24,06,44,7.20
2009,05,24,06,45,7.20
2009,05,24,06,46,7.20
2009,05,24,06,47,7.20
2009,05,24,06,48,7.20
2009,05,24,06,49,7.20
2009,05,24,06,50,7.20
2009,05,24,06,51,7.20
2009,05,24,06,52,7.20
2009,05,24,06,53,7.20
2009,05,24,06,54,7.20
2009,05,24,06,55,7.20
2009,05,24,06,56,7.20
2009,05,24,06,57,7.20
2009,05,24,06,58,7.20
2009,05,24,06,59,7.20
2009,05,24,07,00,7.20
2009,05,24,07,01,7.30
2009,05,24,07,02,7.30
2009,05,24,07,03,7.30
2009,05,24,07,04,7.30
2009,05,24,07,05,7.30
2009,05,24,07,06,7.30
2009,05,24,07,07,7.30
2009,05,24,07,08,7.30
2009,05,24,07,09,7.40
2009,05,24,07,10,7.40
2009,05,24,07,11,7.40
2009,05,24,07,12,7.40
2009,05,24,07,13,7.40
2009,05,24,07,14,7.40
2009,05,24,07,15,7.40
2009,05,24,07,16,7.50
2009,05,24,07,17,7.50
2009,05,24,07,18,7.50
2009,05,24,07,19,7.50
2009,05,24,07,20,7.60
2009,05,24,07,21,7.60
2009,05,24,07,22,7.60
2009,05,24,07,23,7.60
2009,05,24,07,24,7.60
2009,05,24,07,25,7.70
2009,05,24,07,26,7.70
2009,05,24,07,27,7.70
2009,05,24,07,28,7.70
2009,05,24,07,29,7.70
2009,05,24,07,30,7.80
2009,05,24,07,31,7.80
2009,05,24,07,32,7.80
2009,05,24,07,33,7.80
2009,05,24,07,34,7.80
2009,05,24,07,35,7.80
2009,05,24,07,36,7.90
2009,05,24,07,37,7.90
2009,05,24,07,38,7.90
2009,05,24,07,39,7.90
2009,05,24,07,40,8.00
2009,05,24,07,41,8.10
2009,05,24,07,42,8.10
2009,05,24,07,43,8.10
2009,05,24,07,44,8.20
2009,05,24,07,45,8.20
2009,05,24,07,46,8.20
2009,05,24,07,47,8.20
2009,05,24,07,48,8.30
2009,05,24,07,49,8.30
2009,05,24,07,50,8.30
2009,05,24,07,51,8.40
2009,05,24,07,52,8.40
2009,05,24,07,53,8.40
2009,05,24,07,54,8.40
2009,05,24,07,55,8.40
2009,05,24,07,56,8.50
2009,05,24,07,57,8.50
2009,05,24,07,58,8.50
2009,05,24,07,59,8.60
2009,05,24,08,00,8.60
2009,05,24,08,01,8.60
2009,05,24,08,02,8.60
2009,05,24,08,03,8.70
2009,05,24,08,04,8.70
2009,05,24,08,05,8.70
2009,05,24,08,06,8.70
2009,05,24,08,07,8.80
2009,05,24,08,08,8.80
2009,05,24,08,09,8.80
2009,05,24,08,10,8.80
2009,05,24,08,11,8.90
2009,05,24,08,12,8.90
2009,05,24,08,13,8.90
2009,05,24,08,14,9.00
2009,05,24,08,15,9.00
2009,05,24,08,16,9.10
2009,05,24,08,17,9.10
2009,05,24,08,18,9.10
2009,05,24,08,19,9.20
2009,05,24,08,20,9.20
2009,05,24,08,21,9.20
2009,05,24,08,22,9.20
2009,05,24,08,23,9.20
2009,05,24,08,24,9.30
2009,05,24,08,25,9.30
2009,05,24,08,26,9.30
2009,05,24,08,27,9.30
2009,05,24,08,28,9.40
2009,05,24,08,29,9.40
2009,05,24,08,30,9.40
2009,05,24,08,31,9.50
2009,05,24,08,32,9.50
2009,05,24,08,33,9.60
2009,05,24,08,34,9.60
2009,05,24,08,35,9.60
2009,05,24,08,36,9.60
2009,05,24,08,37,9.70
2009,05,24,08,38,9.70
2009,05,24,08,39,9.70
2009,05,24,08,40,9.80
2009,05,24,08,41,9.80
2009,05,24,08,42,9.80
2009,05,24,08,43,9.90
2009,05,24,08,44,9.90
2009,05,24,08,45,10.00
2009,05,24,08,46,10.10
2009,05,24,08,47,10.10
2009,05,24,08,48,10.20
2009,05,24,08,49,10.20
2009,05,24,08,50,10.20
2009,05,24,08,51,10.20
2009,05,24,08,52,10.30
2009,05,24,08,53,10.30
2009,05,24,08,54,10.30
2009,05,24,08,55,10.30
2009,05,24,08,56,10.30
2009,05,24,08,57,10.30
2009,05,24,08,58,10.40
2009,05,24,08,59,10.40
2009,05,24,09,00,10.50
2009,05,24,09,01,10.50
2009,05,24,09,02,10.60
2009,05,24,09,03,10.60
2009,05,24,09,04,10.70
2009,05,24,09,05,10.70
2009,05,24,09,06,10.80
2009,05,24,09,07,10.80
2009,05,24,09,08,10.80
2009,05,24,09,09,10.90
2009,05,24,09,10,10.90
2009,05,24,09,11,10.90
2009,05,24,09,12,11.00
2009,05,24,09,13,11.00
2009,05,24,09,14,11.10
2009,05,24,09,15,11.20
2009,05,24,09,16,11.20
2009,05,24,09,17,11.30
2009,05,24,09,18,11.30
2009,05,24,09,19,11.30
2009,05,24,09,20,11.40
2009,05,24,09,21,11.40
2009,05,24,09,22,11.50
2009,05,24,09,23,11.60
2009,05,24,09,24,11.60
2009,05,24,09,25,11.70
2009,05,24,09,26,11.70
2009,05,24,09,27,11.80
2009,05,24,09,28,11.90
2009,05,24,09,29,12.00
2009,05,24,09,30,12.00
2009,05,24,09,31,12.10
2009,05,24,09,32,12.10
2009,05,24,09,33,12.20
2009,05,24,09,34,12.20
2009,05,24,09,35,12.30
2009,05,24,09,36,12.40
2009,05,24,09,37,12.40
2009,05,24,09,38,12.50
2009,05,24,09,39,12.50
2009,05,24,09,40,12.60
2009,05,24,09,41,12.70
2009,05,24,09,42,12.70
2009,05,24,09,43,12.80
2009,05,24,09,44,12.80
2009,05,24,09,45,12.90
2009,05,24,09,46,13.00
2009,05,24,09,47,13.00
2009,05,24,09,48,13.10
2009,05,24,09,49,13.10
2009,05,24,09,50,13.20
2009,05,24,09,51,13.20
2009,05,24,09,52,13.30
2009,05,24,09,53,13.30
2009,05,24,09,54,13.40
2009,05,24,09,55,13.40
2009,05,24,09,56,13.50
2009,05,24,09,57,13.50
2009,05,24,09,58,13.60
2009,05,24,09,59,13.60
2009,05,24,10,00,13.70
2009,05,24,10,01,13.70
2009,05,24,10,02,13.70
2009,05,24,10,03,13.80
2009,05,24,10,04,13.80
2009,05,24,10,05,13.90
2009,05,24,10,06,13.90
2009,05,24,10,07,14.00
2009,05,24,10,08,14.00
2009,05,24,10,09,14.10
2009,05,24,10,10,14.20
2009,05,24,10,11,14.20
2009,05,24,10,12,14.20
2009,05,24,10,13,14.30
2009,05,24,10,14,14.30
2009,05,24,10,15,14.30
2009,05,24,10,16,14.40
2009,05,24,10,17,14.40
2009,05,24,10,18,14.50
2009,05,24,10,19,14.60
2009,05,24,10,20,14.60
2009,05,24,10,21,14.70
2009,05,24,10,22,14.80
2009,05,24,10,23,14.80
2009,05,24,10,24,14.90
2009,05,24,10,25,14.90
2009,05,24,10,26,15.00
2009,05,24,10,27,15.00
2009,05,24,10,28,15.00
2009,05,24,10,29,15.00
2009,05,24,10,30,15.00
2009,05,24,10,31,15.10
2009,05,24,10,32,15.20
2009,05,24,10,33,15.40
2009,05,24,10,34,15.60
2009,05,24,10,35,15.70
2009,05,24,10,36,15.90
2009,05,24,10,37,16.00
2009,05,24,10,38,16.10
2009,05,24,10,39,16.30
2009,05,24,10,40,16.40
2009,05,24,10,41,16.60
2009,05,24,10,42,16.70
2009,05,24,10,43,16.70
2009,05,24,10,44,16.80
2009,05,24,10,45,16.90
2009,05,24,10,46,17.00
2009,05,24,10,47,17.00
2009,05,24,10,48,17.10
2009,05,24,10,49,17.20
2009,05,24,10,50,17.20
2009,05,24,10,51,17.30
2009,05,24,10,52,17.40
2009,05,24,10,53,17.40
2009,05,24,10,54,17.50
2009,05,24,10,55,17.50
2009,05,24,10,56,17.60
2009,05,24,10,57,17.70
2009,05,24,10,58,17.80
2009,05,24,10,59,17.80
2009,05,24,11,00,17.90
2009,05,24,11,01,18.10
2009,05,24,11,02,18.20
2009,05,24,11,03,18.30
2009,05,24,11,04,18.40
2009,05,24,11,05,18.50
2009,05,24,11,06,18.50
2009,05,24,11,07,18.50
2009,05,24,11,08,18.50
2009,05,24,11,09,18.40
2009,05,24,11,10,18.40
2009,05,24,11,11,18.40
2009,05,24,11,12,18.50
2009,05,24,11,13,18.50
2009,05,24,11,14,18.40
2009,05,24,11,15,18.40
2009,05,24,11,16,18.50
2009,05,24,11,17,18.50
2009,05,24,11,18,18.60
2009,05,24,11,19,18.70
2009,05,24,11,20,18.70
2009,05,24,11,21,18.80
2009,05,24,11,22,18.90
2009,05,24,11,23,19.00
2009,05,24,11,24,19.20
2009,05,24,11,25,19.20
2009,05,24,11,26,19.30
2009,05,24,11,27,19.40
2009,05,24,11,28,19.50
2009,05,24,11,29,19.50
2009,05,24,11,30,19.60
2009,05,24,11,31,19.60
2009,05,24,11,32,19.70
2009,05,24,11,33,19.70
2009,05,24,11,34,19.70
2009,05,24,11,35,19.70
2009,05,24,11,36,19.80
2009,05,24,11,37,19.80
2009,05,24,11,38,19.90
2009,05,24,11,39,19.90
2009,05,24,11,40,20.00
2009,05,24,11,41,20.10
2009,05,24,11,42,20.20
2009,05,24,11,43,20.30
2009,05,24,11,44,20.40
2009,05,24,11,45,20.40
2009,05,24,11,46,20.50
2009,05,24,11,47,20.50
2009,05,24,11,48,20.50
2009,05,24,11,49,20.50
2009,05,24,11,50,20.60
2009,05,24,11,51,20.60
2009,05,24,11,52,20.60
2009,05,24,11,53,20.60
2009,05,24,11,54,20.60
2009,05,24,11,55,20.70
2009,05,24,11,56,20.70
2009,05,24,11,57,20.80
2009,05,24,11,58,20.90
2009,05,24,11,59,20.90
2009,05,24,12,00,21.00
2009,05,24,12,01,21.10
2009,05,24,12,02,21.10
2009,05,24,12,03,21.10
2009,05,24,12,04,21.10
2009,05,24,12,05,21.10
2009,05,24,12,06,21.10
2009,05,24,12,07,21.10
2009,05,24,12,08,21.10
2009,05,24,12,09,21.10
2009,05,24,12,10,21.10
2009,05,24,12,11,21.10
2009,05,24,12,12,21.10
2009,05,24,12,13,21.10
2009,05,24,12,14,21.20
2009,05,24,12,15,21.20
2009,05,24,12,16,21.20
2009,05,24,12,17,21.20
2009,05,24,12,18,21.20
2009,05,24,12,19,21.20
2009,05,24,12,20,21.20
2009,05,24,12,21,21.20
2009,05,24,12,22,21.20
2009,05,24,12,23,21.30
2009,05,24,12,24,21.30
2009,05,24,12,25,21.40
2009,05,24,12,26,21.40
2009,05,24,12,27,21.50
2009,05,24,12,28,21.50
2009,05,24,12,29,21.60
2009,05,24,12,30,21.60
2009,05,24,12,31,21.60
2009,05,24,12,32,21.70
2009,05,24,12,33,21.60
2009,05,24,12,34,21.60
2009,05,24,12,35,21.70
2009,05,24,12,36,21.70
2009,05,24,12,37,21.60
2009,05,24,12,38,21.60
2009,05,24,12,39,21.60
2009,05,24,12,40,21.50
2009,05,24,12,41,21.40
2009,05,24,12,42,21.40
2009,05,24,12,43,21.40
2009,05,24,12,44,21.30
2009,05,24,12,45,21.30
2009,05,24,12,46,21.30
2009,05,24,12,47,21.30
2009,05,24,12,48,21.30
2009,05,24,12,49,21.30
2009,05,24,12,50,21.30
2009,05,24,12,51,21.30
2009,05,24,12,52,21.30
2009,05,24,12,53,21.30
2009,05,24,12,54,21.20
2009,05,24,12,55,21.20
2009,05,24,12,56,21.30
2009,05,24,12,57,21.30
2009,05,24,12,58,21.30
2009,05,24,12,59,21.30
2009,05,24,13,00,21.30
2009,05,24,13,01,21.30
2009,05,24,13,02,21.40
2009,05,24,13,03,21.40
2009,05,24,13,04,21.50
2009,05,24,13,05,21.50
2009,05,24,13,06,21.60
2009,05,24,13,07,21.60
2009,05,24,13,08,21.60
2009,05,24,13,09,21.50
2009,05,24,13,10,21.50
2009,05,24,13,11,21.50
2009,05,24,13,12,21.50
2009,05,24,13,13,21.60
2009,05,24,13,14,21.60
2009,05,24,13,15,21.60
2009,05,24,13,16,21.60
2009,05,24,13,17,21.60
2009,05,24,13,18,21.60
2009,05,24,13,19,21.60
2009,05,24,13,20,21.70
2009,05,24,13,21,21.70
2009,05,24,13,22,21.70
2009,05,24,13,23,21.80
2009,05,24,13,24,21.80
2009,05,24,13,25,21.80
2009,05,24,13,26,21.90
2009,05,24,13,27,21.90
2009,05,24,13,28,21.80
2009,05,24,13,29,21.80
2009,05,24,13,30,21.70
2009,05,24,13,31,21.70
2009,05,24,13,32,21.70
2009,05,24,13,33,21.80
2009,05,24,13,34,21.80
2009,05,24,13,35,21.90
2009,05,24,13,36,21.90
2009,05,24,13,37,21.90
2009,05,24,13,38,21.90
2009,05,24,13,39,21.80
2009,05,24,13,40,21.70
2009,05,24,13,41,21.70
2009,05,24,13,42,21.70
2009,05,24,13,43,21.70
2009,05,24,13,44,21.70
2009,05,24,13,45,21.70
2009,05,24,13,46,21.80
2009,05,24,13,47,21.80
2009,05,24,13,48,21.80
2009,05,24,13,49,21.80
2009,05,24,13,50,21.80
2009,05,24,13,51,21.80
2009,05,24,13,52,21.80
2009,05,24,13,53,21.90
2009,05,24,13,54,22.00
2009,05,24,13,55,22.10
2009,05,24,13,56,22.10
2009,05,24,13,57,22.20
2009,05,24,13,58,22.30
2009,05,24,13,59,22.30
2009,05,24,14,00,22.30
2009,05,24,14,01,22.30
2009,05,24,14,02,22.30
2009,05,24,14,03,22.30
2009,05,24,14,04,22.30
2009,05,24,14,05,22.30
2009,05,24,14,06,22.30
2009,05,24,14,07,22.30
2009,05,24,14,08,22.30
2009,05,24,14,09,22.20
2009,05,24,14,10,22.20
2009,05,24,14,11,22.20
2009,05,24,14,12,22.20
2009,05,24,14,13,22.20
2009,05,24,14,14,22.20
2009,05,24,14,15,22.30
2009,05,24,14,16,22.40
2009,05,24,14,17,22.40
2009,05,24,14,18,22.40
2009,05,24,14,19,22.50
2009,05,24,14,20,22.60
2009,05,24,14,21,22.60
2009,05,24,14,22,22.70
2009,05,24,14,23,22.70
2009,05,24,14,24,22.70
2009,05,24,14,25,22.70
2009,05,24,14,26,22.80
2009,05,24,14,27,22.80
2009,05,24,14,28,22.80
2009,05,24,14,29,22.80
2009,05,24,14,30,22.90
2009,05,24,14,31,22.90
2009,05,24,14,32,23.00
2009,05,24,14,33,23.10
2009,05,24,14,34,23.20
2009,05,24,14,35,23.30
2009,05,24,14,36,23.30
2009,05,24,14,37,23.30
2009,05,24,14,38,23.30
2009,05,24,14,39,23.30
2009,05,24,14,40,23.30
2009,05,24,14,41,23.30
2009,05,24,14,42,23.20
2009,05,24,14,43,23.20
2009,05,24,14,44,23.20
2009,05,24,14,45,23.20
2009,05,24,14,46,23.20
2009,05,24,14,47,23.20
2009,05,24,14,48,23.20
2009,05,24,14,49,23.30
2009,05,24,14,50,23.30
2009,05,24,14,51,23.40
2009,05,24,14,52,23.40
2009,05,24,14,53,23.50
2009,05,24,14,54,23.60
2009,05,24,14,55,23.60
2009,05,24,14,56,23.60
2009,05,24,14,57,23.60
2009,05,24,14,58,23.50
2009,05,24,14,59,23.50
2009,05,24,15,00,23.50
2009,05,24,15,01,23.50
2009,05,24,15,02,23.50
2009,05,24,15,03,23.40
2009,05,24,15,04,23.40
2009,05,24,15,05,23.40
2009,05,24,15,06,23.40
2009,05,24,15,07,23.40
2009,05,24,15,08,23.50
2009,05,24,15,09,23.50
2009,05,24,15,10,23.60
2009,05,24,15,11,23.60
2009,05,24,15,12,23.60
2009,05,24,15,13,23.50
2009,05,24,15,14,23.60
2009,05,24,15,15,23.50
2009,05,24,15,16,23.50
2009,05,24,15,17,23.50
2009,05,24,15,18,23.60
2009,05,24,15,19,23.60
2009,05,24,15,20,23.60
2009,05,24,15,21,23.70
2009,05,24,15,22,23.70
2009,05,24,15,23,23.70
2009,05,24,15,24,23.80
2009,05,24,15,25,23.80
2009,05,24,15,26,23.80
2009,05,24,15,27,23.70
2009,05,24,15,28,23.60
2009,05,24,15,29,23.60
2009,05,24,15,30,23.60
2009,05,24,15,31,23.70
2009,05,24,15,32,23.70
2009,05,24,15,33,23.60
2009,05,24,15,34,23.70
2009,05,24,15,35,23.70
2009,05,24,15,36,23.70
2009,05,24,15,37,23.70
2009,05,24,15,38,23.70
2009,05,24,15,39,23.70
2009,05,24,15,40,23.60
2009,05,24,15,41,23.70
2009,05,24,15,42,23.60
2009,05,24,15,43,23.60
2009,05,24,15,44,23.60
2009,05,24,15,45,23.60
2009,05,24,15,46,23.60
2009,05,24,15,47,23.60
2009,05,24,15,48,23.60
2009,05,24,15,49,23.60
2009,05,24,15,50,23.60
2009,05,24,15,51,23.60
2009,05,24,15,52,23.60
2009,05,24,15,53,23.60
2009,05,24,15,54,23.60
2009,05,24,15,55,23.60
2009,05,24,15,56,23.60
2009,05,24,15,57,23.60
2009,05,24,15,58,23.60
2009,05,24,15,59,23.70
2009,05,24,16,00,23.60
2009,05,24,16,01,23.60
2009,05,24,16,02,23.60
2009,05,24,16,03,23.40
2009,05,24,16,04,23.30
2009,05,24,16,05,23.20
2009,05,24,16,06,23.20
2009,05,24,16,07,23.20
2009,05,24,16,08,23.20
2009,05,24,16,09,23.10
2009,05,24,16,10,23.10
2009,05,24,16,11,23.10
2009,05,24,16,12,23.10
2009,05,24,16,13,23.20
2009,05,24,16,14,23.20
2009,05,24,16,15,23.30
2009,05,24,16,16,23.30
2009,05,24,16,17,23.20
2009,05,24,16,18,23.20
2009,05,24,16,19,23.10
2009,05,24,16,20,23.10
2009,05,24,16,21,23.00
2009,05,24,16,22,23.00
2009,05,24,16,23,22.90
2009,05,24,16,24,22.90
2009,05,24,16,25,22.90
2009,05,24,16,26,22.90
2009,05,24,16,27,23.00
2009,05,24,16,28,23.10
2009,05,24,16,29,23.20
2009,05,24,16,30,23.20
2009,05,24,16,31,23.10
2009,05,24,16,32,23.10
2009,05,24,16,33,23.00
2009,05,24,16,34,23.00
2009,05,24,16,35,23.00
2009,05,24,16,36,23.00
2009,05,24,16,37,23.10
2009,05,24,16,38,23.10
2009,05,24,16,39,23.10
2009,05,24,16,40,23.20
2009,05,24,16,41,23.20
2009,05,24,16,42,23.20
2009,05,24,16,43,23.20
2009,05,24,16,44,23.20
2009,05,24,16,45,23.30
2009,05,24,16,46,23.30
2009,05,24,16,47,23.30
2009,05,24,16,48,23.30
2009,05,24,16,49,23.30
2009,05,24,16,50,23.30
2009,05,24,16,51,23.30
2009,05,24,16,52,23.30
2009,05,24,16,53,23.30
2009,05,24,16,54,23.30
2009,05,24,16,55,23.30
2009,05,24,16,56,23.30
2009,05,24,16,57,23.30
2009,05,24,16,58,23.30
2009,05,24,16,59,23.40
2009,05,24,17,00,23.40
2009,05,24,17,01,23.40
2009,05,24,17,02,23.40
2009,05,24,17,03,23.40
2009,05,24,17,04,23.40
2009,05,24,17,05,23.40
2009,05,24,17,06,23.40
2009,05,24,17,07,23.40
2009,05,24,17,08,23.30
2009,05,24,17,09,23.20
2009,05,24,17,10,23.10
2009,05,24,17,11,23.00
2009,05,24,17,12,23.00
2009,05,24,17,13,22.90
2009,05,24,17,14,22.80
2009,05,24,17,15,22.80
2009,05,24,17,16,22.80
2009,05,24,17,17,22.80
2009,05,24,17,18,22.80
2009,05,24,17,19,22.80
2009,05,24,17,20,22.80
2009,05,24,17,21,22.80
2009,05,24,17,22,22.90
2009,05,24,17,23,22.90
2009,05,24,17,24,22.90
2009,05,24,17,25,22.90
2009,05,24,17,26,22.90
2009,05,24,17,27,22.90
2009,05,24,17,28,22.90
2009,05,24,17,29,22.90
2009,05,24,17,30,22.90
2009,05,24,17,31,22.90
2009,05,24,17,32,22.90
2009,05,24,17,33,22.90
2009,05,24,17,34,22.90
2009,05,24,17,35,22.90
2009,05,24,17,36,23.00
2009,05,24,17,37,23.00
2009,05,24,17,38,23.00
2009,05,24,17,39,23.00